Location: *
(41.0833°N, 73.4167°W)
Time: 01:47:29
(UTC+00:00)

Cosmos 2058 Rocket - Pass Details

Date: 22 October 2019
Orbit: 611 x 638 km, 82.5° (Epoch: 20 November)

Event Time Altitude Azimuth Distance (km) Brightness Sun altitude
Rises 09:12:32 0° 359° (N) 2,905 6.6 -23.3°
Reaches altitude 10° 09:14:51 10° 6° (N) 1,999 5.8 -22.9°
Maximum altitude 09:19:05 43° 78° (ENE) 876 4.3 -22.1°
Drops below altitude 10° 09:23:19 10° 151° (SSE) 2,001 6.0 -21.3°
Sets 09:25:38 0° 158° (SSE) 2,908 6.8 -20.8°
